Temperature
21 21 21 21 23 25 24 24 24 24 24 23 23 23 23 22 22 21 18 17 17 17 17 17 17 17 17 17 18 18 18 18 18 17 17 17 17 18 18 18 18 17 17 17 17 17 18 18 18
20 21 20 22 25 24 24 24 24 24 23 22 22 22 23 21 20 18 17 17 17 17 17 17 17 17 17 17 17 17 17 17 17 17 17 17 17 17 17 17 17 17 17 17 17 17 17 17 18
21 21 22 24 24 24 24 24 24 23 22 22 22 22 22 20 19 18 17 17 17 17 17 17 17 17 17 17 17 17 17 17 17 17 17 17 17 17 17 17 17 17 17 17 17 17 17 17 17
20 21 23 24 24 24 24 24 24 23 22 22 23 22 20 19 18 18 17 17 17 17 16 17 17 17 17 17 17 17 17 17 17 17 17 17 17 17 17 17 17 17 17 17 17 17 17 17 17
20 23 24 24 23 23 24 24 23 24 23 22 23 22 20 18 18 17 17 17 17 17 16 17 17 17 17 17 17 17 17 17 17 17 17 17 17 17 17 17 17 17 17 17 17 17 17 17 17
22 24 24 24 23 23 24 23 23 24 23 22 22 22 20 18 18 17 17 17 17 17 17 17 17 17 17 17 17 17 17 17 17 17 17 17 17 17 17 17 17 17 17 17 17 17 17 17 17
23 24 24 24 23 23 24 23 23 24 23 22 22 22 20 18 17 17 17 17 17 17 16 16 16 16 17 17 17 17 17 17 17 17 17 17 17 17 17 17 17 17 17 17 17 17 17 17 17
22 24 23 23 23 23 23 23 22 23 22 21 21 22 20 18 17 17 17 17 17 17 16 16 16 16 16 16 17 17 17 17 17 17 16 16 16 16 16 16 16 16 16 16 16 16 16 16 16
22 24 23 23 23 23 23 23 22 21 21 20 20 20 19 18 17 17 17 17 17 16 16 16 16 16 16 16 16 16 16 16 16 16 16 16 16 16 16 16 16 16 16 16 16 16 16 16 16
23 23 23 24 24 24 23 23 22 22 22 21 20 19 18 17 17 17 17 17 17 17 17 16 16 16 16 16 16 16 16 16 16 16 16 16 16 16 16 16 16 16 16 16 16 16 16 16 16
23 23 23 23 23 23 23 22 22 22 22 22 21 19 18 18 18 18 18 18 17 17 17 16 16 16 16 16 16 16 16 16 16 16 16 16 16 16 16 16 16 16 15 15 15 15 16 16 16
23 23 22 22 22 22 22 22 22 22 22 21 20 19 18 18 18 18 18 18 17 17 16 16 16 16 16 16 16 16 16 16 16 16 16 15 15 15 15 15 15 15 15 15 15 15 15 15 16
23 22 22 21 21 22 22 22 22 21 20 20 19 19 18 18 18 18 18 18 17 17 17 16 16 16 16 16 16 16 16 15 15 15 15 15 15 15 15 15 15 15 15 15 15 15 15 15 15
23 22 22 22 22 22 22 22 22 21 20 20 19 19 19 18 18 18 18 18 17 17 17 16 16 16 16 16 16 16 16 15 15 15 15 15 15 15 15 15 15 15 15 15 15 15 15 15 15
22 23 23 22 22 22 22 22 22 21 20 20 20 19 19 18 18 18 18 18 18 17 17 16 16 16 16 16 16 16 16 16 15 15 15 15 15 15 15 15 15 15 15 15 15 15 14 14 14
23 23 23 23 23 22 22 22 22 21 20 20 20 19 19 18 18 18 18 18 18 17 17 17 16 16 16 16 16 16 16 15 15 15 15 15 15 15 15 15 15 15 14 14 14 14 14 14 14
23 23 23 23 23 22 22 22 22 20 21 21 20 20 19 18 18 18 18 18 17 17 17 16 16 16 16 16 16 15 15 15 15 15 15 15 15 15 15 15 14 14 14 14 14 14 14 14 14
23 23 23 23 22 22 22 22 22 21 20 21 20 20 19 19 18 17 17 17 17 17 17 16 16 16 16 16 16 15 15 15 15 15 15 15 15 15 15 14 14 14 14 14 14 14 14 14 14
23 23 23 23 23 22 22 22 22 21 21 21 20 20 19 19 18 17 17 17 17 17 17 16 16 16 16 16 15 15 15 15 15 15 15 15 15 15 14 14 14 14 14 14 14 14 14 13 13
23 23 23 23 22 22 22 22 23 22 21 20 21 20 20 19 18 17 17 17 17 17 16 16 16 16 16 16 16 15 15 15 15 15 15 15 14 14 14 14 14 14 14 14 13 13 13 13 13
23 23 23 22 22 22 22 22 22 22 21 20 20 20 19 19 18 17 17 17 16 16 16 16 16 16 16 15 15 15 15 15 15 15 14 14 14 14 14 14 14 14 14 13 13 13 13 13 13
22 23 22 22 22 22 22 22 23 23 22 21 20 19 19 18 18 17 17 17 16 16 16 16 16 16 16 15 15 15 15 15 15 15 14 14 14 14 14 14 14 14 13 13 13 13 13 13 13
22 22 22 22 22 22 22 22 23 22 22 21 21 19 19 18 18 17 17 16 16 16 16 16 16 16 15 15 15 15 15 15 14 14 14 14 14 14 14 14 14 13 13 13 13 13 13 13 13
22 22 21 22 22 21 22 22 22 22 22 22 21 20 19 18 17 17 16 16 16 16 16 16 15 15 15 15 15 15 15 14 14 14 14 14 14 14 14 13 13 13 13 13 13 13 13 13 12
22 22 21 21 21 21 22 21 22 22 22 21 21 20 18 18 17 16 16 16 16 16 16 15 15 15 15 15 15 15 15 14 14 14 14 14 14 13 13 13 13 13 13 13 13 13 12 12 12
22 22 21 20 21 21 21 21 22 21 20 20 19 19 18 17 17 16 16 15 15 15 15 15 15 15 15 15 15 15 14 14 14 14 14 13 13 13 13 13 13 13 13 13 13 12 12 12 12
21 21 21 21 21 21 21 21 21 21 20 20 19 18 18 17 16 16 15 15 15 15 15 15 15 15 15 15 15 14 14 14 14 14 14 13 13 13 13 13 13 13 13 12 12 12 12 12 12
21 21 21 20 20 20 21 21 21 20 20 20 19 18 17 16 16 16 15 15 15 15 15 14 14 14 15 14 14 14 14 14 14 14 14 13 13 13 13 13 13 13 12 12 12 12 12 12 12
20 20 20 21 20 20 20 21 21 21 20 20 19 18 17 16 16 15 15 15 15 14 14 14 14 14 14 14 14 14 14 14 14 14 13 13 13 13 13 13 12 12 12 12 12 12 12 12 12
20 20 20 20 20 20 20 21 21 20 20 19 18 18 17 16 15 15 15 14 14 14 14 14 14 14 14 14 14 14 14 13 13 13 13 13 13 13 13 12 12 12 12 12 12 12 12 11 11
Wind_Speed
4 3 2 2 2 2 4 4 4 4 4 5 5 4 5 6 5 5 4 4 4 5 5 6 6 7 8 9 9 9 10 10 11 11 11 11 10 10 9 9 10 10 10 10 10 10 10 10 10
2 2 2 2 1 3 4 4 5 5 6 6 5 5 6 6 6 6 5 4 5 5 6 7 8 8 8 9 10 10 10 10 10 10 11 10 10 10 10 9 10 10 10 10 10 10 10 10 10
3 2 1 1 1 2 5 5 7 7 5 3 4 4 4 5 5 4 5 5 6 6 6 9 8 9 9 10 10 11 11 11 11 11 11 10 10 10 10 10 10 10 10 10 10 10 10 10 10
2 2 1 2 5 4 4 5 6 7 5 3 4 6 5 5 3 5 7 6 7 6 7 9 9 9 10 10 11 11 11 11 11 11 11 11 11 11 10 10 9 9 9 9 10 10 10 10 10
2 2 3 4 4 4 4 4 4 4 4 4 4 6 7 5 6 8 8 7 7 7 7 9 9 9 10 10 11 11 11 11 11 11 11 11 11 11 11 10 10 9 9 9 9 9 9 9 10
2 2 3 5 6 4 3 3 4 4 5 5 5 6 6 6 7 8 8 7 7 7 7 9 9 9 9 10 10 11 11 11 11 11 11 11 11 11 11 11 11 10 9 9 9 9 9 10 10
2 2 3 5 5 5 4 3 3 4 5 4 3 5 7 7 7 8 8 8 7 7 6 7 8 9 9 10 10 10 10 10 10 10 10 11 11 11 11 11 11 11 10 10 9 9 9 9 10
1 2 4 4 5 4 4 4 2 2 4 3 2 3 6 9 8 8 8 7 7 6 6 6 6 6 7 9 10 10 10 10 9 9 9 9 9 10 10 10 11 11 11 11 10 10 9 9 9
2 3 4 4 4 4 5 5 3 2 5 4 2 3 6 12 11 9 8 7 6 5 5 5 5 5 6 7 8 8 8 8 7 8 7 4 6 8 9 12 11 11 11 11 10 10 9 8 9
3 3 3 2 3 4 5 4 4 5 5 5 5 6 10 12 11 9 8 7 6 5 5 4 4 4 5 5 5 5 5 5 5 6 5 5 6 7 8 11 10 10 9 10 9 8 6 4 6
3 3 3 2 3 3 5 4 4 5 4 4 6 9 12 11 10 8 7 6 5 5 5 4 4 4 4 4 4 4 4 4 5 5 6 5 5 5 5 5 6 6 6 6 6 4 5 5 5
4 3 2 3 3 4 4 5 4 4 2 3 6 10 12 11 10 8 7 6 5 5 5 4 3 3 3 4 4 3 3 3 3 4 5 4 3 4 4 4 4 4 4 4 4 4 5 5 5
5 4 3 3 4 4 4 4 3 3 2 4 7 9 10 10 9 7 7 6 6 6 5 5 4 3 3 3 3 3 3 3 3 3 3 4 3 3 3 3 4 4 4 4 4 4 5 5 6
5 5 4 4 4 4 4 3 3 4 5 7 9 10 10 9 9 8 7 7 6 6 6 5 4 4 3 3 3 3 3 2 2 2 3 3 3 3 3 3 3 4 4 4 4 4 4 4 4
6 6 5 4 5 4 4 5 5 4 7 8 9 9 9 8 8 8 7 7 6 6 6 5 5 4 4 3 3 3 3 3 2 2 2 3 3 3 3 2 3 3 3 3 3 4 4 4 4
6 6 6 5 5 5 6 5 3 5 8 8 8 8 8 8 8 8 7 7 6 6 6 6 4 4 4 3 4 3 2 2 2 2 2 2 3 3 3 2 2 3 3 3 3 3 3 3 3
7 6 6 5 5 5 7 6 3 5 8 8 8 8 9 8 8 7 7 7 6 6 6 6 5 4 4 4 3 3 3 2 2 2 2 2 2 2 2 2 2 3 3 2 2 2 2 3 3
6 6 6 5 4 6 7 7 4 6 8 8 8 8 8 8 8 8 7 6 6 6 6 6 5 5 5 4 3 3 2 2 2 2 2 2 1 2 2 2 2 2 2 2 2 3 2 2 2
5 6 6 4 4 6 7 8 6 6 8 9 9 8 8 8 8 8 7 7 7 6 6 6 6 6 5 4 4 3 3 3 2 2 2 2 1 1 2 1 2 2 2 2 2 2 3 2 1
7 7 6 3 3 5 6 7 6 6 8 9 9 9 9 9 8 8 7 7 7 7 6 6 6 6 6 4 4 3 3 3 2 2 2 2 2 2 1 2 2 2 2 2 2 2 1 1 0
8 8 6 4 2 5 5 6 6 5 6 7 8 8 8 8 9 9 8 8 7 7 6 6 6 6 6 6 4 4 3 3 3 3 2 2 2 2 2 2 2 2 2 2 2 2 2 1 1
8 6 6 6 6 4 5 5 4 5 5 5 6 6 7 8 9 9 9 8 8 7 6 6 6 5 6 6 6 6 4 4 3 3 3 3 2 2 2 2 2 2 1 2 2 2 2 2 1
5 3 6 7 8 7 7 6 3 3 4 4 5 5 6 7 8 9 9 8 8 7 6 6 5 5 5 6 6 6 5 4 3 3 3 3 2 2 2 2 2 2 2 2 2 2 2 2 1
5 5 5 7 7 8 7 7 3 3 4 3 3 4 5 5 7 7 8 7 7 6 6 5 6 5 4 5 6 7 6 5 5 4 4 3 3 3 3 2 2 2 2 2 2 2 3 2 2
7 7 5 5 6 5 3 6 4 1 1 2 2 3 4 4 5 6 7 7 7 6 6 6 6 6 5 6 7 7 7 7 6 5 4 4 3 3 3 3 3 2 2 2 2 3 2 3 3
8 9 6 5 5 4 4 6 2 1 1 1 1 2 3 4 4 5 6 6 6 6 6 6 6 6 6 5 6 7 7 5 5 5 5 5 4 4 3 3 3 3 3 3 2 2 3 2 3
7 8 6 7 6 6 5 4 3 1 1 1 1 2 3 3 4 5 5 6 6 6 7 6 6 6 5 6 6 6 6 6 6 6 5 4 4 4 4 4 3 3 3 3 3 3 3 3 3
4 4 5 6 5 6 5 6 3 3 2 1 1 1 2 2 3 4 5 5 6 6 6 6 6 5 5 5 5 4 6 6 6 6 5 5 5 4 5 4 4 3 3 4 3 3 3 3 3
5 6 6 6 6 6 6 3 1 2 2 1 1 1 1 2 2 3 4 5 5 5 6 6 6 5 5 5 5 5 5 5 5 5 5 5 5 5 5 5 4 4 4 4 4 4 4 4 4
7 7 8 8 7 8 8 4 2 1 1 1 1 0 0 1 2 3 3 4 5 5 6 6 6 5 5 5 4 5 5 5 5 5 5 5 5 5 6 5 5 5 5 5 5 5 4 4 4
Wind_Direction
171 181 218 235 211 128 94 91 102 113 93 73 71 69 66 51 35 70 85 88 88 92 84 93 80 76 75 76 78 81 83 83 85 86 87 88 88 90 91 90 89 88 87 87 87 85 84 84 84
166 188 228 242 214 133 103 106 105 89 106 109 84 76 75 70 61 90 105 100 103 91 80 78 84 82 79 77 76 78 79 82 85 87 87 88 88 89 91 90 89 88 86 86 84 83 84 85 85
169 224 254 210 132 112 115 115 112 104 108 119 98 69 60 76 86 98 104 120 110 94 83 82 82 84 82 80 76 76 76 79 83 85 85 86 87 89 90 90 90 88 87 87 86 83 82 83 84
202 202 205 140 112 88 105 119 130 132 116 98 113 98 86 71 81 102 116 121 112 99 88 85 80 83 83 82 80 79 77 79 80 82 84 83 82 82 84 87 90 90 88 87 87 86 82 82 83
219 207 155 136 118 112 111 118 140 138 126 115 117 107 101 89 95 110 119 119 111 102 92 92 86 84 84 84 83 80 79 79 79 79 80 80 81 82 82 84 84 87 88 87 85 85 83 82 83
193 194 170 152 134 130 124 135 144 127 121 124 124 116 104 112 117 117 120 117 110 104 98 99 94 86 83 83 81 81 82 81 80 79 77 76 77 80 81 81 81 82 87 89 88 86 87 87 86
193 164 160 149 148 148 137 146 152 136 127 122 132 121 124 133 126 126 124 118 109 104 100 98 102 100 93 85 80 80 79 79 79 79 77 76 78 78 78 79 79 79 82 86 87 86 88 89 87
198 165 166 170 165 153 143 150 135 144 121 117 144 133 138 147 141 135 126 122 115 110 105 100 99 95 96 95 84 80 77 76 77 77 79 85 92 87 83 86 80 79 80 81 80 82 87 89 87
208 190 177 174 175 157 154 157 140 130 135 132 112 82 120 141 148 143 137 132 123 114 109 105 101 95 90 88 92 92 85 79 87 86 86 95 89 88 88 74 77 79 80 80 78 78 80 95 96
195 192 166 147 164 154 160 164 157 162 155 148 131 113 131 147 154 153 150 145 140 132 122 113 106 105 100 93 96 88 86 82 76 77 79 78 79 77 80 87 82 84 88 91 83 84 99 97 91
173 172 143 142 141 150 161 163 171 177 173 173 162 150 151 156 161 162 157 153 148 143 137 127 119 110 106 102 95 90 85 78 74 74 74 75 82 88 86 93 102 99 104 92 99 104 77 72 70
161 148 158 149 151 161 166 165 171 191 155 145 157 154 159 164 168 169 164 159 153 147 144 143 138 123 116 111 102 102 98 89 79 75 73 75 78 78 80 82 78 81 82 80 80 75 76 73 71
172 159 148 148 147 154 154 170 183 192 167 147 147 157 166 171 171 170 166 162 158 156 155 153 153 143 132 116 113 114 103 97 90 79 76 76 81 84 82 78 74 75 78 85 82 79 75 70 65
163 159 158 161 167 174 175 185 203 195 172 163 164 170 174 177 177 173 174 173 168 164 160 156 158 151 148 142 139 121 113 109 89 84 78 77 81 80 77 76 71 70 76 78 86 88 79 72 69
163 169 175 189 192 188 200 213 215 191 177 176 177 177 177 180 182 182 180 181 176 171 166 161 161 158 158 148 135 125 125 124 111 100 84 83 85 89 82 73 72 71 82 89 86 87 81 79 77
188 200 203 188 197 197 218 237 196 182 189 191 188 185 184 184 189 187 186 186 181 177 173 166 171 171 158 149 149 141 137 131 122 113 94 94 96 90 82 82 79 79 84 84 92 89 89 85 73
201 211 212 193 199 203 222 242 189 186 198 199 194 192 192 189 192 189 190 189 188 185 180 176 178 175 164 157 154 153 148 143 134 120 108 102 92 94 99 90 93 94 89 83 89 94 93 89 78
206 219 221 219 195 212 228 245 228 199 210 212 205 200 196 196 193 188 187 190 188 189 187 182 176 179 168 168 171 161 158 152 141 128 122 108 103 98 100 111 108 101 97 94 100 105 98 88 88
234 231 234 230 206 225 241 254 249 215 214 219 212 203 199 198 193 185 186 189 189 189 193 187 184 181 175 174 182 182 178 174 164 158 150 142 131 113 110 129 113 105 99 100 111 115 116 108 101
227 235 235 217 210 237 257 260 252 227 222 221 217 209 205 201 192 185 188 189 195 193 193 194 194 187 185 186 186 187 185 180 158 152 160 164 156 143 136 143 137 130 123 131 126 135 145 129 222
229 239 240 244 236 224 258 251 226 218 211 215 222 220 211 205 200 191 191 194 196 195 193 194 197 193 190 186 183 173 168 173 167 171 170 170 160 157 160 157 149 157 165 156 170 175 181 203 221
235 236 241 235 241 240 238 266 231 206 202 205 210 210 209 207 206 196 192 194 197 199 195 194 190 193 189 185 189 188 192 193 194 185 172 170 164 158 166 171 172 166 168 180 194 193 208 215 220
236 230 234 238 248 255 233 255 245 187 222 222 215 210 208 205 202 198 195 197 199 196 193 195 189 191 193 191 192 202 204 204 191 179 169 176 167 167 166 177 187 185 186 199 204 206 217 215 239
199 205 214 225 240 246 236 240 257 209 243 241 214 207 202 197 195 195 193 194 195 192 188 188 189 187 191 197 197 206 204 201 192 190 186 192 183 183 178 181 187 198 200 202 207 213 216 232 236
213 226 230 225 227 243 221 238 251 324 284 256 236 200 189 181 179 181 183 186 187 187 188 189 189 187 192 203 204 206 207 205 203 203 201 205 201 196 191 188 196 194 201 203 212 219 222 226 233
218 230 241 255 254 251 215 238 241 4 298 264 234 169 152 157 169 175 181 185 184 184 188 192 195 196 196 205 208 206 207 209 211 212 212 212 215 210 195 194 198 201 204 209 213 231 229 233 234
215 224 249 264 272 263 233 233 252 200 202 170 148 147 153 162 169 175 179 182 182 185 188 193 195 199 200 206 211 208 209 210 213 216 216 218 216 207 197 199 202 205 208 212 209 225 227 231 241
254 214 215 233 250 250 244 240 236 198 190 168 171 164 147 159 174 178 183 187 186 189 192 193 195 197 199 206 213 213 217 215 217 217 212 211 212 205 197 199 204 205 207 214 216 228 241 236 231
200 211 227 233 246 257 257 239 187 219 236 246 222 199 178 175 182 186 184 188 188 188 191 194 198 202 203 208 210 212 216 221 218 216 213 212 212 208 204 202 208 207 209 212 212 221 225 235 233
237 232 230 237 240 245 262 256 123 176 281 293 302 325 194 190 180 183 183 184 186 188 192 196 202 206 209 210 210 212 206 212 216 216 213 207 206 208 208 206 209 208 212 215 217 219 224 231 236
Height
1501 1501 1501 1503 1501 1500 1504 1505 1503 1505 1506 1509 1510 1509 1509 1511 1514 1521 1522 1520 1520 1520 1519 1518 1517 1517 1517 1516 1516 1515 1515 1515 1515 1515 1515 1516 1516 1517 1517 1517 1518 1518 1518 1518 1519 1519 1520 1520 1520
1502 1502 1504 1503 1499 1505 1508 1505 1505 1506 1509 1511 1511 1512 1512 1515 1518 1520 1520 1520 1521 1521 1521 1520 1519 1519 1519 1518 1518 1517 1517 1517 1517 1517 1517 1517 1518 1518 1518 1519 1519 1519 1519 1520 1520 1521 1521 1521 1521
1502 1502 1504 1500 1500 1504 1508 1506 1506 1509 1511 1511 1512 1514 1515 1519 1521 1521 1522 1522 1522 1523 1522 1521 1520 1520 1520 1520 1520 1519 1519 1518 1519 1519 1519 1519 1519 1519 1520 1520 1520 1521 1521 1521 1522 1522 1522 1523 1523
1503 1505 1504 1501 1504 1504 1504 1506 1507 1510 1512 1513 1513 1515 1518 1521 1522 1522 1522 1523 1524 1524 1523 1522 1522 1522 1522 1522 1521 1521 1521 1521 1521 1521 1521 1521 1521 1521 1521 1522 1522 1522 1522 1523 1523 1523 1524 1524 1524
1503 1503 1502 1504 1506 1506 1506 1507 1508 1508 1511 1513 1514 1516 1520 1523 1523 1523 1523 1524 1525 1525 1525 1524 1524 1524 1523 1523 1523 1523 1523 1523 1523 1523 1523 1523 1523 1523 1523 1523 1523 1523 1524 1524 1524 1524 1525 1525 1525
1504 1501 1503 1506 1507 1506 1507 1509 1509 1509 1512 1514 1515 1516 1521 1524 1524 1524 1525 1526 1527 1527 1527 1526 1525 1525 1525 1525 1525 1525 1525 1524 1524 1524 1524 1524 1525 1525 1525 1525 1525 1525 1525 1525 1525 1526 1526 1526 1526
1504 1501 1503 1504 1507 1507 1508 1510 1510 1510 1512 1515 1516 1517 1522 1524 1525 1525 1526 1527 1527 1528 1528 1528 1528 1527 1527 1527 1527 1526 1526 1526 1526 1526 1526 1526 1526 1526 1526 1526 1526 1526 1526 1526 1527 1527 1527 1527 1527
1503 1502 1504 1504 1507 1508 1509 1510 1512 1512 1514 1517 1517 1517 1521 1524 1525 1526 1527 1528 1528 1529 1529 1529 1529 1529 1529 1529 1528 1528 1528 1528 1528 1528 1528 1528 1528 1528 1528 1528 1527 1528 1527 1528 1528 1528 1528 1528 1528
1504 1503 1504 1505 1506 1507 1509 1510 1513 1514 1515 1517 1518 1519 1521 1523 1525 1527 1528 1529 1529 1530 1530 1530 1531 1531 1531 1531 1530 1530 1530 1530 1530 1530 1529 1530 1530 1530 1530 1529 1529 1529 1529 1529 1529 1529 1529 1529 1529
1503 1503 1503 1504 1504 1506 1509 1510 1512 1514 1515 1517 1519 1521 1522 1523 1525 1527 1528 1529 1530 1530 1531 1531 1532 1532 1532 1532 1532 1532 1532 1532 1532 1532 1531 1532 1531 1531 1531 1530 1530 1530 1530 1530 1530 1530 1531 1531 1532
1502 1503 1504 1506 1507 1508 1509 1511 1513 1513 1514 1516 1518 1520 1522 1524 1525 1527 1528 1529 1530 1531 1531 1532 1532 1533 1533 1533 1533 1533 1533 1533 1533 1533 1533 1532 1532 1532 1532 1532 1532 1532 1532 1532 1532 1533 1533 1533 1533
1503 1504 1505 1507 1508 1509 1510 1511 1513 1513 1515 1516 1518 1520 1522 1523 1525 1526 1528 1529 1531 1532 1532 1532 1533 1533 1534 1534 1534 1534 1534 1534 1534 1534 1534 1534 1534 1534 1534 1534 1533 1533 1533 1533 1534 1534 1534 1534 1534
1502 1505 1507 1508 1509 1510 1511 1512 1513 1514 1516 1517 1518 1520 1522 1523 1525 1527 1528 1530 1531 1531 1532 1533 1533 1534 1534 1534 1534 1535 1535 1535 1535 1535 1535 1535 1535 1535 1535 1535 1534 1534 1534 1534 1534 1535 1535 1535 1535
1503 1505 1507 1508 1509 1510 1510 1511 1513 1513 1515 1517 1518 1520 1521 1523 1525 1526 1528 1529 1530 1531 1532 1533 1534 1534 1534 1535 1535 1535 1535 1535 1536 1536 1536 1536 1536 1535 1535 1536 1535 1535 1535 1535 1536 1536 1535 1535 1535
1504 1504 1506 1507 1508 1509 1510 1510 1510 1512 1514 1516 1517 1519 1521 1522 1524 1526 1527 1529 1530 1531 1532 1533 1534 1534 1535 1535 1535 1536 1536 1536 1537 1537 1537 1537 1536 1536 1536 1536 1536 1536 1536 1536 1536 1536 1536 1536 1536
1502 1503 1505 1505 1506 1507 1510 1510 1508 1511 1513 1514 1516 1518 1520 1521 1523 1525 1526 1528 1529 1531 1532 1533 1533 1534 1535 1535 1536 1536 1537 1537 1537 1537 1537 1537 1537 1537 1537 1536 1536 1536 1536 1536 1536 1537 1537 1536 1537
1500 1502 1503 1504 1504 1505 1506 1507 1507 1510 1512 1513 1514 1516 1518 1520 1522 1523 1525 1527 1529 1530 1531 1532 1533 1534 1534 1535 1535 1536 1537 1537 1537 1538 1538 1538 1538 1538 1537 1537 1537 1537 1536 1536 1536 1537 1537 1537 1537
1500 1499 1501 1502 1502 1504 1505 1505 1505 1508 1510 1510 1512 1514 1516 1518 1520 1522 1523 1525 1527 1529 1530 1531 1532 1533 1534 1534 1535 1536 1536 1537 1537 1537 1537 1537 1538 1538 1537 1537 1537 1537 1536 1536 1536 1537 1537 1537 1537
1495 1497 1499 1500 1501 1503 1502 1502 1502 1505 1507 1508 1509 1511 1514 1516 1518 1520 1522 1523 1525 1527 1528 1529 1530 1531 1532 1533 1534 1535 1536 1536 1536 1537 1537 1537 1537 1537 1537 1537 1537 1536 1536 1536 1537 1537 1537 1537 1537
1496 1498 1498 1499 1500 1502 1500 1500 1498 1501 1503 1505 1506 1508 1511 1513 1516 1518 1519 1521 1523 1525 1526 1528 1529 1530 1531 1532 1533 1534 1535 1535 1536 1536 1536 1537 1537 1537 1537 1537 1536 1536 1536 1536 1536 1536 1536 1536 1536
1495 1497 1497 1499 1500 1499 1500 1499 1496 1497 1500 1503 1504 1506 1508 1510 1512 1515 1517 1519 1521 1522 1524 1525 1526 1528 1529 1530 1532 1532 1533 1534 1535 1535 1535 1536 1536 1536 1536 1536 1536 1536 1536 1536 1536 1536 1536 1536 1536
1496 1494 1496 1498 1500 1499 1500 1501 1492 1492 1496 1499 1501 1503 1505 1507 1510 1512 1514 1516 1518 1520 1522 1523 1525 1526 1527 1528 1530 1531 1532 1533 1534 1534 1534 1535 1535 1535 1535 1535 1535 1535 1535 1535 1535 1536 1535 1535 1536
1494 1495 1495 1496 1496 1498 1496 1499 1491 1491 1494 1495 1498 1500 1502 1505 1507 1509 1511 1513 1516 1518 1519 1521 1522 1524 1525 1526 1527 1529 1530 1531 1532 1533 1533 1534 1534 1534 1534 1534 1534 1534 1534 1535 1535 1535 1535 1535 1535
1494 1495 1496 1495 1495 1502 1494 1497 1495 1489 1491 1492 1495 1498 1500 1502 1504 1506 1509 1511 1513 1515 1517 1518 1520 1522 1523 1524 1525 1527 1528 1529 1530 1531 1532 1532 1533 1533 1533 1533 1533 1533 1533 1534 1533 1533 1533 1533 1533
1494 1496 1502 1503 1503 1498 1491 1495 1493 1487 1490 1492 1494 1496 1498 1500 1502 1504 1506 1508 1510 1512 1514 1516 1517 1519 1520 1522 1523 1524 1526 1527 1528 1529 1530 1530 1531 1531 1531 1531 1532 1532 1532 1532 1532 1532 1532 1532 1532
1490 1492 1501 1507 1502 1495 1494 1495 1489 1489 1491 1493 1494 1495 1497 1498 1500 1502 1504 1506 1507 1509 1511 1513 1515 1516 1518 1519 1520 1522 1523 1525 1526 1526 1527 1528 1529 1529 1529 1530 1530 1530 1530 1530 1530 1530 1530 1530 1530
1490 1491 1490 1495 1495 1498 1492 1490 1489 1489 1490 1492 1493 1494 1496 1497 1499 1500 1502 1504 1505 1507 1508 1510 1512 1514 1515 1517 1518 1519 1521 1522 1523 1524 1525 1525 1526 1526 1527 1527 1528 1528 1528 1528 1528 1528 1529 1529 1529
1490 1489 1493 1496 1502 1501 1494 1491 1489 1488 1488 1490 1491 1493 1495 1496 1498 1499 1500 1502 1503 1505 1507 1508 1510 1511 1512 1514 1515 1516 1518 1519 1520 1521 1521 1522 1523 1523 1524 1525 1525 1526 1526 1526 1526 1526 1526 1527 1526
1492 1492 1491 1491 1492 1497 1497 1492 1483 1485 1487 1489 1490 1492 1494 1495 1496 1497 1498 1500 1501 1503 1504 1506 1508 1509 1510 1511 1512 1513 1514 1516 1517 1518 1518 1519 1519 1520 1521 1522 1522 1523 1523 1524 1524 1524 1524 1524 1524
1488 1488 1489 1495 1493 1491 1493 1492 1483 1486 1488 1489 1491 1492 1493 1494 1495 1496 1497 1498 1500 1501 1502 1504 1505 1507 1508 1508 1509 1510 1511 1513 1514 1514 1515 1515 1516 1517 1518 1519 1519 1520 1520 1521 1521 1522 1521 1521 1521